Weather History for KGKJ - November, 2012

Change the Weather History Date:

Friday, November 2, 2012

  Actual Average Record
Temperature  
Mean Temperature 35 °F -  
Max Temperature 37 °F 58 °F 81 °F (1950)
Min Temperature 33 °F 40 °F 21 °F (1954)
Degree Days  
Heating Degree Days 30    
Moisture  
Dew Point 33 °F    
Average Humidity 88    
Maximum Humidity 96    
Minimum Humidity 73    
Precipitation  
Precipitation 0.14 in - - ()
Sea Level Pressure  
Sea Level Pressure 29.85 in    
Wind  
Wind Speed 7 mph (WNW)    
Max Wind Speed 13 mph    
Max Gust Speed 23 mph    
Visibility 8 miles    
Events Rain , Snow    
Averages and records for this station are not official NWS values.
T = Trace of Precipitation, MM = Missing Value Source: NWS Daily Summary

Daily Weather History Graph

Daily Weather History Graph

Search for Another Location

Airport or City:

Trip Planner

Search our weather history database for the weather conditions in past years. The results will help you decide how hot, cold, wet, or windy it might be!

Date:

Astronomy

Nov. 02, 2012 Rise Set
Actual Time 7:54 AM EDT 6:13 PM EDT
Civil Twilight 7:25 AM EDT 6:42 PM EDT
Nautical Twilight 6:52 AM EDT 7:15 PM EDT
Astronomical Twilight 6:20 AM EDT 7:47 PM EDT
Moon 8:57 PM EDT (11/2) 11:15 AM EDT (11/2)
Length of Visible Light 11h 16m
Length of Day
10h 19m
Waning Gibbous, 87% of the Moon is Illuminated
Nov 2
Waning Gibbous
Nov 6
Last Quarter
Nov 13
New
Nov 20
First Quarter
Nov 28
Full

Hourly Weather History & Observations

Time (EDT) Temp. Windchill Dew Point Humidity Pressure Visibility Wind Dir Wind Speed Gust Speed Precip Events Conditions
12:53 AM 37.0 °F 33.3 °F 34.0 °F 89% 29.73 in 10.0 mi SW 4.6 mph - 0.01 in   Overcast
1:53 AM 37.0 °F 33.3 °F 34.0 °F 89% 29.72 in 10.0 mi WSW 4.6 mph - 0.01 in   Overcast
2:53 AM 37.0 °F 34.5 °F 34.0 °F 89% 29.72 in 10.0 mi WSW 3.5 mph - 0.01 in   Overcast
3:53 AM 37.9 °F 32.7 °F 34.0 °F 86% 29.72 in 10.0 mi WSW 6.9 mph - 0.01 in   Overcast
4:53 AM 37.9 °F 32.1 °F 32.0 °F 79% 29.72 in 10.0 mi West 8.1 mph - 0.01 in   Overcast
5:53 AM 37.9 °F 32.1 °F 30.0 °F 73% 29.73 in 10.0 mi West 8.1 mph - 0.01 in   Overcast
6:53 AM 37.9 °F 30.5 °F 30.0 °F 73% 29.73 in 10.0 mi WNW 11.5 mph 19.6 mph N/A   Overcast
7:53 AM 37.9 °F 30.9 °F 30.0 °F 73% 29.75 in 10.0 mi West 10.4 mph - 0.01 in   Overcast
8:53 AM 37.0 °F 31.0 °F 33.1 °F 86% 29.77 in 8.0 mi West 8.1 mph - 0.01 in   Overcast
9:04 AM 35.6 °F 28.0 °F 32.0 °F 87% 29.75 in 3.0 mi WNW 10.4 mph 16.1 mph 0.00 in Snow Light Snow
9:34 AM 35.6 °F 28.6 °F 33.8 °F 93% 29.75 in 6.0 mi West 9.2 mph - 0.00 in Snow Light Snow
9:53 AM 37.0 °F 33.3 °F 34.0 °F 89% 29.79 in 10.0 mi WNW 4.6 mph - 0.00 in   Overcast
10:28 AM 37.4 °F 31.4 °F 33.8 °F 87% 29.78 in 5.0 mi WNW 8.1 mph - 0.01 in Rain Light Rain
10:51 AM 37.4 °F 31.4 °F 33.8 °F 87% 29.78 in 10.0 mi WNW 8.1 mph - 0.01 in Rain Light Rain
10:53 AM 37.0 °F 30.4 °F 34.0 °F 89% 29.81 in 10.0 mi West 9.2 mph - 0.01 in Rain Light Rain
11:03 AM 37.4 °F 30.8 °F 33.8 °F 87% 29.78 in 10.0 mi West 9.2 mph - 0.00 in   Overcast
11:28 AM 37.4 °F 32.1 °F 33.8 °F 87% 29.80 in 5.0 mi NW 6.9 mph - 0.00 in Rain Rain
11:42 AM 37.4 °F 32.1 °F 33.8 °F 87% 29.80 in 9.0 mi NW 6.9 mph - 0.00 in Rain Light Rain
11:53 AM 36.0 °F 29.6 °F 33.1 °F 89% 29.84 in 3.0 mi WNW 8.1 mph 18.4 mph 0.00 in Snow Light Snow
12:50 PM 35.6 °F 27.5 °F 33.8 °F 93% 29.82 in 4.0 mi WNW 11.5 mph 17.3 mph 0.01 in Snow Light Snow
12:53 PM 36.0 °F 28.5 °F 33.1 °F 89% 29.85 in 4.0 mi WNW 10.4 mph 17.3 mph 0.01 in Snow Light Snow
1:19 PM 37.4 °F 30.3 °F 33.8 °F 87% 29.82 in 10.0 mi WNW 10.4 mph 21.9 mph 0.00 in   Overcast
1:53 PM 37.0 °F 29.3 °F 34.0 °F 89% 29.86 in 8.0 mi West 11.5 mph 17.3 mph 0.00 in Rain Light Rain
2:10 PM 37.4 °F 29.3 °F 33.8 °F 87% 29.82 in 10.0 mi West 12.7 mph 20.7 mph 0.00 in   Overcast
2:30 PM 37.4 °F 30.3 °F 35.6 °F 93% 29.83 in 10.0 mi West 10.4 mph 17.3 mph 0.01 in Rain Light Rain
2:48 PM 37.4 °F 29.8 °F 35.6 °F 93% 29.83 in 10.0 mi West 11.5 mph 19.6 mph 0.01 in   Overcast
2:53 PM 37.9 °F 30.5 °F 34.0 °F 86% 29.86 in 10.0 mi West 11.5 mph - 0.01 in   Overcast
3:01 PM 37.4 °F 29.8 °F 33.8 °F 87% 29.83 in 10.0 mi West 11.5 mph 18.4 mph N/A   Overcast
3:25 PM 37.4 °F 30.3 °F 33.8 °F 87% 29.84 in 3.0 mi NW 10.4 mph 23.0 mph 0.00 in Rain Light Rain
3:28 PM 37.4 °F 31.4 °F 33.8 °F 87% 29.85 in 4.0 mi NW 8.1 mph - 0.00 in Rain Light Rain
3:34 PM 35.6 °F 29.2 °F 33.8 °F 93% 29.85 in 2.5 mi NW 8.1 mph - 0.00 in Snow Light Snow
3:53 PM 35.1 °F 30.1 °F 32.0 °F 89% 29.89 in 2.5 mi WNW 5.8 mph - 0.00 in Snow Light Snow
3:55 PM 35.6 °F 29.9 °F 33.8 °F 93% 29.86 in 4.0 mi WNW 6.9 mph - 0.00 in Snow Light Snow
4:25 PM 35.6 °F 28.6 °F 33.8 °F 93% 29.87 in 10.0 mi WNW 9.2 mph - 0.00 in   Overcast
4:47 PM 35.6 °F 30.7 °F 33.8 °F 93% 29.87 in 10.0 mi WNW 5.8 mph - 0.00 in   Overcast
4:53 PM 36.0 °F 31.1 °F 34.0 °F 93% 29.91 in 10.0 mi WNW 5.8 mph - 0.00 in   Overcast
5:36 PM 37.4 °F 30.8 °F 33.8 °F 87% 29.88 in 10.0 mi West 9.2 mph - 0.01 in   Overcast
5:53 PM 37.0 °F 30.4 °F 32.0 °F 82% 29.92 in 10.0 mi WNW 9.2 mph 17.3 mph 0.01 in   Overcast
6:08 PM 37.4 °F 30.8 °F 33.8 °F 87% 29.90 in 10.0 mi WNW 9.2 mph 16.1 mph N/A   Overcast
6:38 PM 35.6 °F 30.7 °F 33.8 °F 93% 29.91 in 9.0 mi WNW 5.8 mph - 0.00 in   Overcast
6:53 PM 36.0 °F 31.1 °F 33.1 °F 89% 29.95 in 10.0 mi WNW 5.8 mph - 0.00 in   Overcast
6:56 PM 35.6 °F 31.7 °F 33.8 °F 93% 29.92 in 9.0 mi WNW 4.6 mph - N/A   Overcast
7:21 PM 35.6 °F 29.9 °F 32.0 °F 87% 29.93 in 9.0 mi WNW 6.9 mph - 0.00 in   Overcast
7:53 PM 36.0 °F 28.0 °F 32.0 °F 86% 29.96 in 10.0 mi West 11.5 mph - 0.01 in   Overcast
8:21 PM 35.6 °F 30.7 °F 32.0 °F 87% 29.93 in 10.0 mi WNW 5.8 mph - N/A   Overcast
8:53 PM 36.0 °F 29.0 °F 32.0 °F 86% 29.97 in 8.0 mi WNW 9.2 mph - 0.00 in   Overcast
9:36 PM 35.6 °F 30.7 °F 32.0 °F 87% 29.95 in 9.0 mi WNW 5.8 mph - 0.00 in   Overcast
9:49 PM 35.6 °F 30.7 °F 32.0 °F 87% 29.95 in 7.0 mi WNW 5.8 mph - 0.00 in   Overcast
9:53 PM 35.1 °F 30.1 °F 32.0 °F 89% 29.99 in 6.0 mi NW 5.8 mph - 0.00 in   Overcast
10:53 PM 35.1 °F 31.0 °F 32.0 °F 89% 29.99 in 6.0 mi WNW 4.6 mph - 0.00 in   Overcast
11:09 PM 33.8 °F 27.0 °F 30.2 °F 87% 29.96 in 3.0 mi WNW 8.1 mph - 0.00 in Snow Light Snow
11:28 PM 33.8 °F 28.6 °F 32.0 °F 93% 29.96 in 2.0 mi WNW 5.8 mph - 0.01 in Snow Light Snow
11:35 PM 33.8 °F 30.8 °F 32.0 °F 93% 29.96 in 1.2 mi WNW 3.5 mph - 0.01 in Snow Light Snow
11:49 PM 33.8 °F 29.6 °F 32.0 °F 93% 29.96 in 2.0 mi West 4.6 mph - 0.01 in Snow Light Snow
11:53 PM 33.1 °F 28.7 °F 32.0 °F 96% 29.99 in 1.8 mi WNW 4.6 mph - 0.01 in Snow Light Snow